Richlands, VA

5:16 PM EDT on October 23, 2017 (GMT -0400)
Tazewell County

Weather History for KJFZ - December, 2011

Change the Weather History Date:

Sunday, December 25, 2011

  Actual Average (KBLF) Record (KBLF)
Temperature  
Mean Temperature 37 °F -  
Max Temperature 46 °F 37 °F 66 °F (2015)
Min Temperature 28 °F 22 °F -13 °F (1983)
Degree Days  
Heating Degree Days 28    
Moisture  
Dew Point 24 °F    
Average Humidity 66    
Maximum Humidity 100    
Minimum Humidity 25    
Precipitation  
Precipitation 0.00 in - - ()
Sea Level Pressure  
Sea Level Pressure 30.24 in    
Wind  
Wind Speed 5 mph (WSW)    
Max Wind Speed 13 mph    
Max Gust Speed 25 mph    
Visibility 10 miles    
Events      
Averages and records for this station are not official NWS values.
T = Trace of Precipitation, MM = Missing Value Source: NWS Daily Summary

Daily Weather History Graph

Daily Weather History Graph

Search for Another Location

Airport or City:

Trip Planner

Search our weather history database for the weather conditions in past years. The results will help you decide how hot, cold, wet, or windy it might be!

Date:

Astronomy

Dec. 25, 2011 Rise Set
Actual Time 7:38 AM EST 5:15 PM EST
Civil Twilight 7:09 AM EST 5:44 PM EST
Nautical Twilight 6:36 AM EST 6:17 PM EST
Astronomical Twilight 6:05 AM EST 6:49 PM EST
Moon 8:16 AM EST (12/25) 6:33 PM EST (12/25)
Length of Visible Light 10h 35m
Length of Day
9h 37m
New Moon, 1% of the Moon is Illuminated
Dec 25
New Moon
Jan 1
First Quarter
Jan 9
Full
Jan 16
Last Quarter
Jan 23
New

Hourly Weather History & Observations

Time (EST) Temp. Windchill Dew Point Humidity Pressure Visibility Wind Dir Wind Speed Gust Speed Precip Events Conditions
12:15 AM 32.0 °F 26.4 °F 26.6 °F 80% 30.33 in 10.0 mi West 5.8 mph - N/A   Unknown
12:35 AM 32.0 °F 28.7 °F 26.6 °F 80% 30.32 in 10.0 mi South 3.5 mph - N/A   Unknown
12:55 AM 30.2 °F 24.3 °F 24.8 °F 80% 30.31 in 10.0 mi South 5.8 mph - N/A   Unknown
1:15 AM 30.2 °F - 24.8 °F 80% 30.30 in 10.0 mi Calm Calm - N/A   Unknown
1:35 AM 32.0 °F - 24.8 °F 75% 30.30 in 10.0 mi Calm Calm - N/A   Unknown
1:55 AM 30.2 °F - 24.8 °F 80% 30.30 in 10.0 mi Calm Calm - N/A   Unknown
2:15 AM 32.0 °F 28.7 °F 26.6 °F 80% 30.31 in 10.0 mi West 3.5 mph - N/A   Unknown
2:35 AM 30.2 °F - 26.6 °F 86% 30.31 in 10.0 mi Calm Calm - N/A   Unknown
2:55 AM 30.2 °F - 26.6 °F 86% 30.31 in 10.0 mi Calm Calm - N/A   Unknown
3:15 AM 30.2 °F 23.4 °F 28.4 °F 93% 30.30 in 10.0 mi West 6.9 mph - N/A   Unknown
3:35 AM 30.2 °F 26.7 °F 28.4 °F 93% 30.31 in 10.0 mi Variable 3.5 mph - N/A   Unknown
3:55 AM 30.2 °F - 28.4 °F 93% 30.30 in 10.0 mi Calm Calm - N/A   Unknown
4:15 AM 30.2 °F 24.3 °F 28.4 °F 93% 30.30 in 10.0 mi SW 5.8 mph - N/A   Unknown
4:35 AM 30.2 °F 26.7 °F 28.4 °F 93% 30.30 in 10.0 mi Variable 3.5 mph - N/A   Unknown
4:55 AM 30.2 °F - 28.4 °F 93% 30.30 in 10.0 mi Calm Calm - N/A   Unknown
5:15 AM 28.4 °F - 28.4 °F 100% 30.30 in 10.0 mi Calm Calm - N/A   Unknown
5:35 AM 30.2 °F 26.7 °F 28.4 °F 93% 30.30 in 10.0 mi Variable 3.5 mph - N/A   Unknown
5:55 AM 30.2 °F - 28.4 °F 93% 30.30 in 10.0 mi Calm Calm - N/A   Unknown
6:15 AM 28.4 °F - 28.4 °F 100% 30.29 in 10.0 mi Calm Calm - N/A   Unknown
6:35 AM 32.0 °F 28.7 °F 30.2 °F 93% 30.29 in 10.0 mi WSW 3.5 mph - N/A   Unknown
7:15 AM 32.0 °F 26.4 °F 30.2 °F 93% 30.28 in 10.0 mi Variable 5.8 mph - N/A   Unknown
7:35 AM 33.8 °F 29.6 °F 30.2 °F 87% 30.28 in 10.0 mi West 4.6 mph - N/A   Unknown
7:55 AM 33.8 °F 30.8 °F 30.2 °F 87% 30.28 in 10.0 mi Variable 3.5 mph - N/A   Unknown
8:15 AM 33.8 °F 29.6 °F 30.2 °F 87% 30.28 in 10.0 mi Variable 4.6 mph - N/A   Unknown
8:35 AM 33.8 °F 30.8 °F 30.2 °F 87% 30.28 in 10.0 mi West 3.5 mph - N/A   Unknown
8:55 AM 32.0 °F - 30.2 °F 93% 30.28 in 10.0 mi Calm Calm - N/A   Unknown
9:15 AM 32.0 °F 28.7 °F 30.2 °F 93% 30.29 in 10.0 mi WSW 3.5 mph - N/A   Unknown
9:35 AM 35.6 °F 32.8 °F 30.2 °F 81% 30.28 in 10.0 mi WSW 3.5 mph - N/A   Unknown
9:55 AM 35.6 °F - 32.0 °F 87% 30.27 in 10.0 mi Calm Calm - N/A   Unknown
10:15 AM 35.6 °F 31.7 °F 32.0 °F 87% 30.27 in 10.0 mi South 4.6 mph - N/A   Unknown
10:35 AM 37.4 °F 34.9 °F 26.6 °F 65% 30.27 in 10.0 mi Variable 3.5 mph - N/A   Unknown
10:55 AM 41.0 °F 38.0 °F 24.8 °F 53% 30.27 in 10.0 mi Variable 4.6 mph - N/A   Clear
11:15 AM 42.8 °F 37.0 °F 19.4 °F 39% 30.26 in 10.0 mi WSW 10.4 mph - N/A   Unknown
11:35 AM 44.6 °F 40.2 °F 14.0 °F 29% 30.26 in 10.0 mi WSW 8.1 mph - N/A   Unknown
11:55 AM 42.8 °F 38.0 °F 10.4 °F 27% 30.25 in 10.0 mi SW 8.1 mph 25.3 mph N/A   Unknown
12:15 PM 42.8 °F 37.0 °F 10.4 °F 27% 30.24 in 10.0 mi West 10.4 mph - N/A   Unknown
12:35 PM 42.8 °F 36.6 °F 15.8 °F 34% 30.24 in 10.0 mi West 11.5 mph - N/A   Unknown
12:55 PM 42.8 °F 37.5 °F 15.8 °F 34% 30.23 in 10.0 mi WSW 9.2 mph - N/A   Unknown
1:15 PM 44.6 °F 38.4 °F 14.0 °F 29% 30.21 in 10.0 mi WSW 12.7 mph 21.9 mph N/A   Unknown
1:35 PM 44.6 °F 38.8 °F 12.2 °F 27% 30.20 in 10.0 mi WSW 11.5 mph 25.3 mph N/A   Unknown
1:55 PM 46.4 °F 41.5 °F 12.2 °F 25% 30.20 in 10.0 mi WSW 10.4 mph - N/A   Unknown
2:15 PM 46.4 °F 41.9 °F 12.2 °F 25% 30.18 in 10.0 mi WSW 9.2 mph - N/A   Unknown
2:35 PM 44.6 °F 40.7 °F 15.8 °F 31% 30.18 in 10.0 mi Variable 6.9 mph - N/A   Unknown
2:55 PM 44.6 °F 39.7 °F 15.8 °F 31% 30.18 in 10.0 mi WSW 9.2 mph - N/A   Unknown
3:15 PM 46.4 °F 42.9 °F 15.8 °F 29% 30.16 in 10.0 mi Variable 6.9 mph - N/A   Unknown
3:35 PM 46.4 °F 42.4 °F 17.6 °F 32% 30.16 in 10.0 mi SW 8.1 mph - N/A   Unknown
3:55 PM 44.6 °F 40.2 °F 19.4 °F 37% 30.15 in 10.0 mi West 8.1 mph - N/A   Unknown
4:15 PM 44.6 °F 40.2 °F 21.2 °F 39% 30.15 in 10.0 mi WSW 8.1 mph - N/A   Unknown
4:35 PM 44.6 °F 39.2 °F 21.2 °F 39% 30.15 in 10.0 mi SW 10.4 mph - N/A   Unknown
4:55 PM 42.8 °F 38.6 °F 21.2 °F 42% 30.14 in 10.0 mi Variable 6.9 mph - N/A   Unknown
5:15 PM 41.0 °F 38.0 °F 24.8 °F 53% 30.13 in 10.0 mi Variable 4.6 mph - N/A   Unknown
5:35 PM 39.2 °F 33.6 °F 24.8 °F 56% 30.14 in 10.0 mi WSW 8.1 mph - N/A   Unknown
5:55 PM 39.2 °F 32.0 °F 24.8 °F 56% 30.14 in 10.0 mi SW 11.5 mph - N/A   Unknown
6:15 PM 39.2 °F 32.5 °F 26.6 °F 61% 30.15 in 10.0 mi WSW 10.4 mph - N/A   Unknown
6:35 PM 39.2 °F 33.0 °F 26.6 °F 61% 30.16 in 10.0 mi WSW 9.2 mph - N/A   Unknown
6:55 PM 39.2 °F 31.6 °F 26.6 °F 61% 30.17 in 10.0 mi WSW 12.7 mph - N/A   Unknown
7:15 PM 37.4 °F 30.3 °F 28.4 °F 70% 30.17 in 10.0 mi WSW 10.4 mph - N/A   Unknown
7:35 PM 37.4 °F 32.1 °F 28.4 °F 70% 30.17 in 10.0 mi Variable 6.9 mph - N/A   Unknown
7:55 PM 37.4 °F 32.1 °F 28.4 °F 70% 30.18 in 10.0 mi SW 6.9 mph - N/A   Unknown
8:15 PM 37.4 °F 31.4 °F 28.4 °F 70% 30.18 in 10.0 mi WSW 8.1 mph - N/A   Unknown
8:35 PM 37.4 °F 32.8 °F 28.4 °F 70% 30.18 in 10.0 mi Variable 5.8 mph - N/A   Unknown
9:35 PM 37.4 °F 30.8 °F 26.6 °F 65% 30.19 in 10.0 mi WSW 9.2 mph - N/A   Unknown
9:55 PM 37.4 °F 32.1 °F 24.8 °F 60% 30.19 in 10.0 mi West 6.9 mph - N/A   Unknown
10:15 PM 37.4 °F 30.8 °F 21.2 °F 52% 30.19 in 10.0 mi West 9.2 mph - N/A   Unknown
11:55 PM 35.6 °F 29.9 °F 21.2 °F 56% 30.21 in 10.0 mi West 6.9 mph - N/A   Unknown